Weather reports worldwide

Advertisment
Kinloss, United Kingdom (3066): temperature & dewpoint: 10.09.2019 04:00:00 - 16.09.2019 04:00:00 (BST)Kinloss, United Kingdom (3066): temperature -20cm & temperature -100cm: 10.09.2019 04:00:00 - 16.09.2019 04:00:00 (BST)Kinloss, United Kingdom (3066): wind speed & gusts: 10.09.2019 04:00:00 - 16.09.2019 04:00:00 (BST)Kinloss, United Kingdom (3066): wind direction: 10.09.2019 04:00:00 - 16.09.2019 04:00:00 (BST)Kinloss, United Kingdom (3066): reduced air pressure: 10.09.2019 04:00:00 - 16.09.2019 04:00:00 (BST)Kinloss, United Kingdom (3066): visibility: 10.09.2019 04:00:00 - 16.09.2019 04:00:00 (BST)Kinloss, United Kingdom (3066): sunshine duration: 10.09.2019 04:00:00 - 16.09.2019 04:00:00 (BST)Kinloss, United Kingdom (3066): precipitation: 10.09.2019 04:00:00 - 16.09.2019 04:00:00 (BST)
Date & Time tt [°C] td [°C] tt -20cm [°C] tt -100cm [°C] ff [km/h] ff [kn] fx [km/h] fx [kn] dd ppp [hPa] vv [km] sd [min] rr [mm]
16.09.2019 04:00:00 8,1 5,1 - - 8 4 - - SW 1019,6 35 0 -
16.09.2019 03:00:00 7,1 4,0 - - 9 5 - - S 1019,8 30 0 0,0
16.09.2019 02:00:00 8,4 4,5 - - 15 8 - - SW 1020,0 30 0 0,0
16.09.2019 01:00:00 8,0 5,1 - - 15 8 - - SW 1020,2 29 - 0,0
16.09.2019 00:00:00 7,7 4,5 - - 5 3 - - S 1020,4 30 0 0,0
15.09.2019 23:00:00 9,3 4,7 - - 16 9 - - WSW 1020,8 28 0 0,0
15.09.2019 22:00:00 8,6 4,8 - - 13 7 - - SW 1020,6 23 0 0,0
15.09.2019 21:00:00 9,8 5,0 - - 16 9 - - WSW 1020,3 28 0 0,0
15.09.2019 20:00:00 10,1 5,2 - - 26 14 - - W 1019,9 22 6 0,0
15.09.2019 19:00:00 12,0 6,5 - - 15 8 - - W 1020,1 20 18 0,0
15.09.2019 18:00:00 12,7 5,4 - - 26 14 - - W 1019,5 17 42 0,0
15.09.2019 17:00:00 12,8 6,7 - - 22 12 - - W 1019,5 25 12 0,0
15.09.2019 16:00:00 14,2 7,8 - - 31 17 - - W 1019,9 12 6 0,0
15.09.2019 15:00:00 13,8 6,2 - - 26 14 46 25 W 1019,8 26 24 0,0
15.09.2019 14:00:00 13,3 6,0 - - 31 17 52 28 W 1019,7 19 36 0,0
15.09.2019 13:00:00 14,2 6,4 - - 29 16 - - WSW 1019,3 13 18 0,0
15.09.2019 12:00:00 12,2 5,1 - - 29 16 48 26 W 1018,7 10 42 0,0
15.09.2019 11:00:00 12,6 6,8 - - 39 21 57 31 W 1017,7 12 0 0,0
15.09.2019 10:00:00 11,9 6,0 13,2 12,7 39 21 52 28 WSW 1017,0 10 0 0,0
15.09.2019 09:00:00 11,3 5,5 - - 31 17 57 31 WSW 1016,5 13 0 0,0
15.09.2019 08:00:00 11,0 4,8 - - 41 22 55 30 WSW 1015,5 12 0 0,0
15.09.2019 07:00:00 10,5 4,4 - - 28 15 48 26 WSW 1015,4 13 0 0,0
15.09.2019 06:00:00 10,5 3,9 - - 34 18 61 33 WSW 1015,6 13 0 0,0
15.09.2019 05:00:00 11,0 4,4 - - 37 20 61 33 WSW 1015,0 14 0 0,0
15.09.2019 04:00:00 11,5 5,3 - - 35 19 54 29 W 1015,0 15 0 0,0
15.09.2019 03:00:00 11,6 5,7 - - 22 12 50 27 WSW 1014,4 14 0 0,0
15.09.2019 02:00:00 11,8 5,9 - - 35 19 68 37 WSW 1014,0 14 0 0,0
15.09.2019 01:00:00 12,3 7,9 - - 50 27 76 41 W 1013,7 15 - 0,0
15.09.2019 00:00:00 12,1 7,7 - - 39 21 54 29 WSW 1012,9 17 0 0,0
14.09.2019 23:00:00 11,9 8,3 - - 28 15 48 26 WSW 1013,8 45 0 0,0
14.09.2019 22:00:00 11,8 8,7 - - 31 17 54 29 SW 1013,7 50 0 0,0
14.09.2019 21:00:00 12,3 9,3 - - 37 20 54 29 WSW 1014,0 30 0 0,0
14.09.2019 20:00:00 14,0 12,0 - - 35 19 54 29 W 1012,9 28 0 1,4
14.09.2019 19:00:00 15,9 13,5 - - 26 14 61 33 WSW 1012,0 13 0 0,0
14.09.2019 18:00:00 16,9 12,9 - - 44 24 72 39 SW 1011,4 35 0 0,0
14.09.2019 17:00:00 16,9 12,7 - - 48 26 72 39 SW 1011,7 40 0 0,0
14.09.2019 16:00:00 17,4 12,2 - - 46 25 67 36 SW 1012,7 50 0 0,0
14.09.2019 15:00:00 16,6 11,6 - - 52 28 72 39 SW 1014,5 30 0 0,0
14.09.2019 14:00:00 17,2 11,7 - - 42 23 67 36 SW 1014,4 35 0 0,0
14.09.2019 13:00:00 16,8 11,1 - - 35 19 61 33 SW 1015,1 45 0 0,0
14.09.2019 12:00:00 15,8 10,3 - - 31 17 50 27 SSW 1016,6 50 0 0,0
14.09.2019 11:00:00 14,6 9,1 - - 31 17 57 31 SW 1018,7 45 0 0,0
14.09.2019 10:00:00 14,4 8,6 13,2 12,7 31 17 59 32 SW 1019,8 50 0 0,0
14.09.2019 09:00:00 13,8 7,7 - - 24 13 57 31 SW 1021,4 50 0 0,0
14.09.2019 08:00:00 13,2 6,9 - - 16 9 - - SSW 1022,0 40 0 0,0
14.09.2019 07:00:00 12,8 7,5 - - 18 10 - - S 1023,1 40 0 0,0
14.09.2019 06:00:00 12,8 7,2 - - 21 11 - - SSW 1025,1 29 0 0,0
14.09.2019 05:00:00 12,5 7,3 - - 16 9 - - SSW 1026,5 30 0 0,0
14.09.2019 04:00:00 12,4 7,1 - - 15 8 - - SSW 1027,5 45 0 0,0
14.09.2019 03:00:00 12,5 7,4 - - 26 14 - - SW 1028,6 45 0 0,0
14.09.2019 02:00:00 12,2 7,5 - - 16 9 - - SSW 1029,9 35 0 0,0
14.09.2019 01:00:00 12,0 7,9 - - 9 5 76 41 SSW 1030,6 45 - 0,0
14.09.2019 00:00:00 11,5 7,4 - - 9 5 - - S 1031,2 35 0 0,0
13.09.2019 23:00:00 11,6 7,6 - - 16 9 - - SSW 1031,6 35 0 0,0
13.09.2019 22:00:00 12,0 7,4 - - 16 9 - - SW 1031,6 35 0 0,0
13.09.2019 21:00:00 12,5 7,4 - - 21 11 - - SW 1031,7 26 0 0,0
13.09.2019 20:00:00 13,2 7,4 - - 22 12 - - SW 1031,7 30 0 0,0
13.09.2019 19:00:00 13,8 7,6 - - 16 9 - - SW 1031,5 26 0 0,0
13.09.2019 18:00:00 14,4 7,0 - - 26 14 50 27 W 1031,3 29 30 0,0
13.09.2019 17:00:00 14,9 7,1 - - 31 17 - - W 1031,0 40 42 0,0
13.09.2019 16:00:00 14,7 6,8 - - 35 19 46 25 W 1031,0 40 42 0,0
13.09.2019 15:00:00 14,5 9,3 - - 22 12 54 29 W 1031,1 27 42 0,2
13.09.2019 14:00:00 16,1 7,8 - - 31 17 59 32 W 1031,0 17 48 0,0
13.09.2019 13:00:00 15,1 6,9 - - 39 21 57 31 W 1030,5 22 42 0,0
13.09.2019 12:00:00 15,0 6,8 - - 34 18 52 28 WSW 1030,1 27 54 0,0
13.09.2019 11:00:00 14,7 7,1 - - 34 18 52 28 WSW 1030,1 30 60 0,0
13.09.2019 10:00:00 12,6 6,7 13,5 12,7 28 15 - - SW 1029,6 21 24 0,0
13.09.2019 09:00:00 11,6 6,6 - - 18 10 - - WSW 1029,1 25 54 0,0
13.09.2019 08:00:00 10,5 6,3 - - 24 13 - - WSW 1028,6 30 42 0,0
13.09.2019 07:00:00 9,1 5,8 - - 21 11 - - SW 1028,1 35 0 0,0
13.09.2019 06:00:00 8,5 5,9 - - 16 9 - - SW 1027,2 27 0 0,0
13.09.2019 05:00:00 9,9 6,6 - - 22 12 - - WSW 1026,7 40 0 0,0
13.09.2019 04:00:00 9,5 6,5 - - 21 11 - - SW 1026,4 35 0 0,0
13.09.2019 03:00:00 8,8 6,0 - - 8 4 - - SW 1026,0 40 0 0,0
13.09.2019 02:00:00 9,4 6,8 - - 11 6 - - SSW 1025,7 30 0 0,0
13.09.2019 01:00:00 10,1 7,2 - - 13 7 - - SW 1025,2 40 - 0,0
13.09.2019 00:00:00 11,0 6,7 - - 21 11 - - SW 1024,6 27 0 0,0
12.09.2019 23:00:00 11,1 6,2 - - 26 14 - - WSW 1023,6 40 0 0,0
12.09.2019 22:00:00 11,0 7,0 - - 18 10 - - SW 1023,2 30 0 0,0
12.09.2019 21:00:00 11,7 7,2 - - 21 11 - - SW 1022,6 27 0 0,0
12.09.2019 20:00:00 12,2 7,1 - - 18 10 - - WSW 1021,8 30 24 0,0
12.09.2019 19:00:00 13,4 7,3 - - 18 10 - - WSW 1020,8 24 12 0,0
12.09.2019 18:00:00 13,9 7,8 - - 28 15 - - W 1020,0 50 30 0,0
12.09.2019 17:00:00 14,6 8,9 - - 22 12 - - W 1019,0 40 24 0,0
12.09.2019 16:00:00 14,5 8,0 - - 31 17 - - W 1018,4 30 12 0,0
12.09.2019 15:00:00 15,6 9,1 - - 28 15 - - W 1017,5 40 36 0,0
12.09.2019 14:00:00 14,1 9,0 - - 31 17 48 26 W 1017,0 50 12 0,0
12.09.2019 13:00:00 14,6 10,7 - - 21 11 - - SW 1016,3 40 18 0,0
12.09.2019 12:00:00 13,1 10,7 - - 26 14 - - W 1016,0 35 0 0,0
12.09.2019 11:00:00 13,3 9,8 - - 22 12 - - W 1015,5 45 0 0,0
12.09.2019 10:00:00 13,5 9,3 13,7 12,7 18 10 - - WSW 1015,0 45 0 0,0
12.09.2019 09:00:00 13,1 9,3 - - 15 8 - - SW 1014,5 40 0 0,0
12.09.2019 08:00:00 12,4 8,8 - - 16 9 - - SW 1014,3 45 0 0,0
12.09.2019 07:00:00 12,2 9,2 - - 15 8 - - SW 1014,3 50 0 0,0
12.09.2019 06:00:00 12,5 9,3 - - 16 9 - - SW 1013,8 50 0 0,0
12.09.2019 05:00:00 12,4 9,4 - - 16 9 - - SW 1013,6 50 0 0,0
12.09.2019 04:00:00 12,7 9,4 - - 16 9 - - SW 1013,5 50 0 0,0
12.09.2019 03:00:00 12,7 9,2 - - 15 8 - - SW 1013,6 40 0 0,0
12.09.2019 02:00:00 12,7 9,3 - - 15 8 - - SW 1013,6 45 0 0,0
12.09.2019 01:00:00 12,2 10,1 - - 22 12 - - WSW 1013,3 40 - 0,0
12.09.2019 00:00:00 12,9 9,2 - - 22 12 - - SW 1012,7 45 0 0,0
11.09.2019 23:00:00 13,1 9,5 - - 24 13 - - SW 1012,3 50 0 0,0
11.09.2019 22:00:00 13,4 9,4 - - 15 8 - - SSW 1012,0 45 0 0,0
11.09.2019 21:00:00 13,6 9,8 - - 15 8 - - SW 1011,4 40 0 0,0
11.09.2019 20:00:00 14,4 9,1 - - 24 13 55 30 WSW 1010,3 50 6 0,0
11.09.2019 19:00:00 15,1 8,6 - - 41 22 59 32 W 1009,0 40 18 0,0
11.09.2019 18:00:00 15,7 9,2 - - 29 16 48 26 WSW 1008,7 30 12 0,0
11.09.2019 17:00:00 16,3 10,2 - - 31 17 48 26 WSW 1008,6 30 24 0,0
11.09.2019 16:00:00 15,9 10,0 - - 39 21 65 35 W 1007,3 30 36 0,0
11.09.2019 15:00:00 16,8 10,1 - - 44 24 63 34 W 1006,1 35 48 0,0
11.09.2019 14:00:00 15,2 9,4 - - 39 21 55 30 WSW 1005,8 23 18 0,0
11.09.2019 13:00:00 15,3 10,0 - - 29 16 46 25 WSW 1005,1 30 18 0,0
11.09.2019 12:00:00 14,4 9,7 - - 29 16 54 29 WSW 1004,5 30 24 0,0
11.09.2019 11:00:00 15,0 9,4 - - 39 21 55 30 WSW 1003,3 30 60 0,0
11.09.2019 10:00:00 14,2 10,5 13,7 12,7 31 17 - - SW 1002,7 30 60 0,0
11.09.2019 09:00:00 13,5 10,3 - - 16 9 - - SW 1002,3 35 48 0,0
11.09.2019 08:00:00 12,5 10,9 - - 18 10 - - SW 1001,3 40 0 1,0
11.09.2019 07:00:00 13,5 10,3 - - 29 16 - - WSW 1000,2 40 0 0,0
11.09.2019 06:00:00 13,9 9,6 - - 26 14 50 27 WSW 999,4 40 0 0,0
11.09.2019 05:00:00 14,5 12,0 - - 28 15 46 25 WSW 998,7 50 0 0,0
11.09.2019 04:00:00 15,3 12,7 - - 22 12 46 25 WSW 998,9 50 0 0,0
11.09.2019 03:00:00 15,9 13,0 - - 24 13 - - WSW 998,7 50 0 0,0
11.09.2019 02:00:00 15,2 12,0 - - 15 8 - - WSW 998,8 50 0 0,0
11.09.2019 01:00:00 14,7 11,2 - - 24 13 46 25 SSW 999,6 50 - 0,0
11.09.2019 00:00:00 14,5 10,9 - - 31 17 55 30 SW 1000,1 50 0 0,0
10.09.2019 23:00:00 13,9 10,5 - - 31 17 54 29 SSW 1000,6 50 0 0,0
10.09.2019 22:00:00 13,0 10,6 - - 21 11 46 25 SSW 1001,4 50 0 0,2
10.09.2019 21:00:00 12,3 10,0 - - 24 13 48 26 SSW 1003,6 45 0 1,0
10.09.2019 20:00:00 11,9 9,7 - - 22 12 - - SSW 1005,3 16 0 0,6
10.09.2019 19:00:00 14,0 7,9 - - 22 12 - - SSW 1006,6 40 0 0,0
10.09.2019 18:00:00 14,8 7,5 - - 15 8 - - SSW 1007,9 35 0 0,0
10.09.2019 17:00:00 15,4 7,4 - - 24 13 - - SSW 1009,6 28 0 0,0
10.09.2019 16:00:00 16,3 6,2 - - 29 16 - - SW 1010,8 30 48 0,0
10.09.2019 15:00:00 17,0 6,3 - - 26 14 - - SSW 1011,8 35 60 0,0
10.09.2019 14:00:00 17,4 7,8 - - 16 9 - - SW 1013,2 30 24 0,0
10.09.2019 13:00:00 15,5 8,8 - - 11 6 - - W 1014,3 40 42 0,0
10.09.2019 12:00:00 14,8 9,1 - - 9 5 - - WSW 1014,6 45 54 0,0
10.09.2019 11:00:00 13,6 9,2 - - 9 5 - - WSW 1015,7 35 54 0,0
10.09.2019 10:00:00 12,1 9,8 13,7 12,7 9 5 - - W 1016,7 30 30 0,0
10.09.2019 09:00:00 11,4 9,0 - - 9 5 - - SW 1017,0 28 60 0,0
10.09.2019 08:00:00 9,8 8,5 - - 9 5 - - SSW 1016,9 25 42 0,0
10.09.2019 07:00:00 9,0 8,2 - - 5 3 - - SSW 1016,4 30 0 0,0
10.09.2019 06:00:00 10,2 9,3 - - 8 4 - - SW 1016,3 35 0 0,0
10.09.2019 05:00:00 10,6 9,7 - - 8 4 - - SW 1016,2 30 0 0,0
10.09.2019 04:00:00 11,0 9,9 - - 9 5 - - WSW 1016,3 40 0 0,0

tt = temperature
td = dewpoint
tt -20cm = temperature -20cm
tt -100cm = temperature -100cm
ff = wind speed
fx = gusts
dd = wind direction
ppp = reduced air pressure
vv = visibility
sd = sunshine duration
rr = precipitation

Next stations